Year,Month,Day,Hour,Minute,Value (Times are PST for windspeed in km/hr)
2008,05,29,00,00,20.60
2008,05,29,00,01,20.90
2008,05,29,00,02,24.70
2008,05,29,00,03,16.80
2008,05,29,00,04,22.20
2008,05,29,00,05,11.90
2008,05,29,00,06,15.50
2008,05,29,00,07,8.90
2008,05,29,00,08,19.60
2008,05,29,00,09,15.50
2008,05,29,00,10,20.40
2008,05,29,00,11,14.80
2008,05,29,00,12,12.00
2008,05,29,00,13,17.90
2008,05,29,00,14,19.80
2008,05,29,00,15,12.60
2008,05,29,00,16,15.80
2008,05,29,00,17,19.60
2008,05,29,00,18,14.60
2008,05,29,00,19,20.30
2008,05,29,00,20,15.20
2008,05,29,00,21,19.10
2008,05,29,00,22,23.00
2008,05,29,00,23,19.50
2008,05,29,00,24,17.40
2008,05,29,00,25,18.40
2008,05,29,00,26,18.20
2008,05,29,00,27,24.20
2008,05,29,00,28,18.90
2008,05,29,00,29,19.70
2008,05,29,00,30,19.30
2008,05,29,00,31,15.60
2008,05,29,00,32,16.90
2008,05,29,00,33,19.50
2008,05,29,00,34,11.30
2008,05,29,00,35,22.00
2008,05,29,00,36,13.90
2008,05,29,00,37,20.60
2008,05,29,00,38,20.40
2008,05,29,00,39,17.40
2008,05,29,00,40,22.70
2008,05,29,00,41,16.70
2008,05,29,00,42,22.70
2008,05,29,00,43,22.80
2008,05,29,00,44,22.50
2008,05,29,00,45,22.50
2008,05,29,00,46,18.20
2008,05,29,00,47,16.00
2008,05,29,00,48,19.50
2008,05,29,00,49,20.20
2008,05,29,00,50,23.40
2008,05,29,00,51,19.50
2008,05,29,00,52,15.10
2008,05,29,00,53,19.20
2008,05,29,00,54,23.20
2008,05,29,00,55,16.10
2008,05,29,00,56,25.00
2008,05,29,00,57,20.30
2008,05,29,00,58,19.00
2008,05,29,00,59,25.50
2008,05,29,01,00,21.90
2008,05,29,01,01,18.30
2008,05,29,01,02,22.70
2008,05,29,01,03,27.50
2008,05,29,01,04,15.60
2008,05,29,01,05,14.90
2008,05,29,01,06,17.40
2008,05,29,01,07,23.70
2008,05,29,01,08,21.20
2008,05,29,01,09,18.90
2008,05,29,01,10,25.80
2008,05,29,01,11,23.50
2008,05,29,01,12,19.60
2008,05,29,01,13,23.70
2008,05,29,01,14,24.10
2008,05,29,01,15,29.80
2008,05,29,01,16,25.40
2008,05,29,01,17,23.80
2008,05,29,01,18,22.40
2008,05,29,01,19,26.30
2008,05,29,01,20,19.50
2008,05,29,01,21,25.30
2008,05,29,01,22,21.70
2008,05,29,01,23,20.80
2008,05,29,01,24,22.30
2008,05,29,01,25,26.20
2008,05,29,01,26,22.20
2008,05,29,01,27,16.10
2008,05,29,01,28,22.80
2008,05,29,01,29,18.50
2008,05,29,01,30,21.70
2008,05,29,01,31,28.70
2008,05,29,01,32,22.80
2008,05,29,01,33,19.80
2008,05,29,01,34,16.70
2008,05,29,01,35,16.40
2008,05,29,01,36,25.70
2008,05,29,01,37,21.40
2008,05,29,01,38,25.80
2008,05,29,01,39,22.00
2008,05,29,01,40,23.30
2008,05,29,01,41,23.00
2008,05,29,01,42,25.70
2008,05,29,01,43,19.60
2008,05,29,01,44,22.20
2008,05,29,01,45,24.10
2008,05,29,01,46,28.90
2008,05,29,01,47,38.60
2008,05,29,01,48,36.80
2008,05,29,01,49,23.70
2008,05,29,01,50,21.50
2008,05,29,01,51,24.80
2008,05,29,01,52,19.70
2008,05,29,01,53,25.30
2008,05,29,01,54,23.50
2008,05,29,01,55,19.90
2008,05,29,01,56,21.70
2008,05,29,01,57,21.80
2008,05,29,01,58,19.20
2008,05,29,01,59,23.40
2008,05,29,02,00,23.90
2008,05,29,02,01,20.70
2008,05,29,02,02,24.10
2008,05,29,02,03,18.00
2008,05,29,02,04,21.50
2008,05,29,02,05,21.80
2008,05,29,02,06,22.90
2008,05,29,02,07,19.90
2008,05,29,02,08,24.10
2008,05,29,02,09,21.10
2008,05,29,02,10,25.40
2008,05,29,02,11,18.00
2008,05,29,02,12,20.10
2008,05,29,02,13,25.80
2008,05,29,02,14,20.00
2008,05,29,02,15,23.80
2008,05,29,02,16,23.30
2008,05,29,02,17,25.20
2008,05,29,02,18,27.90
2008,05,29,02,19,24.90
2008,05,29,02,20,25.80
2008,05,29,02,21,18.50
2008,05,29,02,22,18.50
2008,05,29,02,23,21.70
2008,05,29,02,24,18.80
2008,05,29,02,25,18.20
2008,05,29,02,26,20.60
2008,05,29,02,27,22.00
2008,05,29,02,28,25.70
2008,05,29,02,29,22.70
2008,05,29,02,30,21.60
2008,05,29,02,31,23.80
2008,05,29,02,32,19.70
2008,05,29,02,33,20.90
2008,05,29,02,34,20.50
2008,05,29,02,35,25.20
2008,05,29,02,36,22.00
2008,05,29,02,37,23.80
2008,05,29,02,38,14.80
2008,05,29,02,39,19.70
2008,05,29,02,40,24.70
2008,05,29,02,41,28.20
2008,05,29,02,42,27.40
2008,05,29,02,43,22.00
2008,05,29,02,44,17.60
2008,05,29,02,45,16.50
2008,05,29,02,46,20.50
2008,05,29,02,47,10.50
2008,05,29,02,48,26.60
2008,05,29,02,49,20.40
2008,05,29,02,50,16.50
2008,05,29,02,51,13.60
2008,05,29,02,52,19.40
2008,05,29,02,53,14.00
2008,05,29,02,54,19.70
2008,05,29,02,55,9.60
2008,05,29,02,56,16.70
2008,05,29,02,57,19.30
2008,05,29,02,58,18.30
2008,05,29,02,59,18.10
2008,05,29,03,00,20.40
2008,05,29,03,01,19.70
2008,05,29,03,02,17.40
2008,05,29,03,03,21.30
2008,05,29,03,04,26.80
2008,05,29,03,05,14.60
2008,05,29,03,06,16.10
2008,05,29,03,07,9.70
2008,05,29,03,08,13.70
2008,05,29,03,09,14.10
2008,05,29,03,10,9.00
2008,05,29,03,11,16.90
2008,05,29,03,12,15.80
2008,05,29,03,13,6.70
2008,05,29,03,14,8.70
2008,05,29,03,15,13.80
2008,05,29,03,16,15.10
2008,05,29,03,17,6.00
2008,05,29,03,18,7.10
2008,05,29,03,19,5.20
2008,05,29,03,20,8.10
2008,05,29,03,21,5.20
2008,05,29,03,22,5.40
2008,05,29,03,23,8.30
2008,05,29,03,24,9.40
2008,05,29,03,25,1.90
2008,05,29,03,26,8.60
2008,05,29,03,27,7.10
2008,05,29,03,28,5.40
2008,05,29,03,29,6.20
2008,05,29,03,30,5.40
2008,05,29,03,31,2.30
2008,05,29,03,32,5.70
2008,05,29,03,33,4.70
2008,05,29,03,34,8.00
2008,05,29,03,35,3.30
2008,05,29,03,36,3.80
2008,05,29,03,37,5.10
2008,05,29,03,38,4.30
2008,05,29,03,39,5.10
2008,05,29,03,40,5.90
2008,05,29,03,41,0.00
2008,05,29,03,42,3.20
2008,05,29,03,43,7.70
2008,05,29,03,44,9.20
2008,05,29,03,45,4.80
2008,05,29,03,46,5.90
2008,05,29,03,47,8.90
2008,05,29,03,48,5.50
2008,05,29,03,49,5.80
2008,05,29,03,50,11.90
2008,05,29,03,51,4.70
2008,05,29,03,52,6.70
2008,05,29,03,53,11.80
2008,05,29,03,54,11.00
2008,05,29,03,55,8.20
2008,05,29,03,56,7.40
2008,05,29,03,57,13.20
2008,05,29,03,58,2.10
2008,05,29,03,59,4.40
2008,05,29,04,00,4.30
2008,05,29,04,01,12.00
2008,05,29,04,02,1.60
2008,05,29,04,03,4.70
2008,05,29,04,04,9.80
2008,05,29,04,05,3.10
2008,05,29,04,06,4.20
2008,05,29,04,07,9.80
2008,05,29,04,08,5.10
2008,05,29,04,09,6.50
2008,05,29,04,10,4.50
2008,05,29,04,11,8.00
2008,05,29,04,12,9.70
2008,05,29,04,13,9.60
2008,05,29,04,14,5.50
2008,05,29,04,15,9.60
2008,05,29,04,16,18.00
2008,05,29,04,17,23.00
2008,05,29,04,18,1.50
2008,05,29,04,19,7.10
2008,05,29,04,20,4.10
2008,05,29,04,21,6.80
2008,05,29,04,22,3.50
2008,05,29,04,23,6.20
2008,05,29,04,24,5.80
2008,05,29,04,25,5.80
2008,05,29,04,26,2.70
2008,05,29,04,27,2.30
2008,05,29,04,28,2.40
2008,05,29,04,29,6.40
2008,05,29,04,30,5.40
2008,05,29,04,31,9.10
2008,05,29,04,32,9.30
2008,05,29,04,33,2.80
2008,05,29,04,34,1.00
2008,05,29,04,35,1.40
2008,05,29,04,36,2.00
2008,05,29,04,37,5.20
2008,05,29,04,38,4.20
2008,05,29,04,39,4.80
2008,05,29,04,40,4.80
2008,05,29,04,41,2.50
2008,05,29,04,42,6.90
2008,05,29,04,43,4.90
2008,05,29,04,44,5.90
2008,05,29,04,45,4.40
2008,05,29,04,46,5.40
2008,05,29,04,47,3.60
2008,05,29,04,48,4.00
2008,05,29,04,49,2.90
2008,05,29,04,50,2.40
2008,05,29,04,51,2.30
2008,05,29,04,52,1.70
2008,05,29,04,53,2.20
2008,05,29,04,54,3.00
2008,05,29,04,55,6.90
2008,05,29,04,56,5.30
2008,05,29,04,57,0.40
2008,05,29,04,58,2.70
2008,05,29,04,59,1.60
2008,05,29,05,00,1.90
2008,05,29,05,01,5.30
2008,05,29,05,02,0.80
2008,05,29,05,03,1.00
2008,05,29,05,04,4.40
2008,05,29,05,05,5.50
2008,05,29,05,06,2.10
2008,05,29,05,07,1.20
2008,05,29,05,08,3.30
2008,05,29,05,09,6.90
2008,05,29,05,10,5.00
2008,05,29,05,11,2.70
2008,05,29,05,12,1.90
2008,05,29,05,13,5.70
2008,05,29,05,14,3.20
2008,05,29,05,15,3.80
2008,05,29,05,16,2.90
2008,05,29,05,17,3.40
2008,05,29,05,18,4.00
2008,05,29,05,19,3.20
2008,05,29,05,20,4.50
2008,05,29,05,21,5.90
2008,05,29,05,22,4.20
2008,05,29,05,23,12.80
2008,05,29,05,24,9.30
2008,05,29,05,25,2.60
2008,05,29,05,26,4.00
2008,05,29,05,27,3.40
2008,05,29,05,28,3.80
2008,05,29,05,29,8.40
2008,05,29,05,30,2.20
2008,05,29,05,31,2.50
2008,05,29,05,32,11.20
2008,05,29,05,33,5.80
2008,05,29,05,34,18.20
2008,05,29,05,35,20.40
2008,05,29,05,36,6.30
2008,05,29,05,37,6.50
2008,05,29,05,38,2.80
2008,05,29,05,39,1.60
2008,05,29,05,40,3.30
2008,05,29,05,41,4.60
2008,05,29,05,42,3.60
2008,05,29,05,43,1.30
2008,05,29,05,44,2.30
2008,05,29,05,45,1.90
2008,05,29,05,46,7.40
2008,05,29,05,47,7.90
2008,05,29,05,48,2.50
2008,05,29,05,49,0.90
2008,05,29,05,50,3.60
2008,05,29,05,51,4.70
2008,05,29,05,52,0.60
2008,05,29,05,53,2.20
2008,05,29,05,54,0.70
2008,05,29,05,55,1.50
2008,05,29,05,56,2.60
2008,05,29,05,57,10.10
2008,05,29,05,58,7.60
2008,05,29,05,59,4.40
2008,05,29,06,00,7.00
2008,05,29,06,01,5.60
2008,05,29,06,02,7.50
2008,05,29,06,03,8.30
2008,05,29,06,04,6.60
2008,05,29,06,05,3.50
2008,05,29,06,06,1.70
2008,05,29,06,07,0.20
2008,05,29,06,08,1.50
2008,05,29,06,09,0.30
2008,05,29,06,10,3.00
2008,05,29,06,11,7.20
2008,05,29,06,12,2.40
2008,05,29,06,13,0.90
2008,05,29,06,14,0.90
2008,05,29,06,15,0.10
2008,05,29,06,16,3.90
2008,05,29,06,17,5.50
2008,05,29,06,18,5.40
2008,05,29,06,19,9.70
2008,05,29,06,20,4.00
2008,05,29,06,21,9.90
2008,05,29,06,22,4.70
2008,05,29,06,23,4.30
2008,05,29,06,24,3.20
2008,05,29,06,25,0.50
2008,05,29,06,26,1.90
2008,05,29,06,27,10.50
2008,05,29,06,28,8.90
2008,05,29,06,29,5.10
2008,05,29,06,30,7.00
2008,05,29,06,31,6.40
2008,05,29,06,32,7.70
2008,05,29,06,33,4.10
2008,05,29,06,34,4.80
2008,05,29,06,35,1.30
2008,05,29,06,36,2.20
2008,05,29,06,37,9.10
2008,05,29,06,38,5.40
2008,05,29,06,39,3.70
2008,05,29,06,40,5.10
2008,05,29,06,41,9.20
2008,05,29,06,42,4.90
2008,05,29,06,43,4.20
2008,05,29,06,44,10.50
2008,05,29,06,45,3.60
2008,05,29,06,46,4.20
2008,05,29,06,47,1.00
2008,05,29,06,48,3.00
2008,05,29,06,49,8.90
2008,05,29,06,50,11.50
2008,05,29,06,51,4.30
2008,05,29,06,52,6.10
2008,05,29,06,53,5.20
2008,05,29,06,54,9.70
2008,05,29,06,55,7.20
2008,05,29,06,56,5.40
2008,05,29,06,57,2.60
2008,05,29,06,58,5.10
2008,05,29,06,59,8.20
2008,05,29,07,00,17.10
2008,05,29,07,01,7.20
2008,05,29,07,02,8.00
2008,05,29,07,03,6.80
2008,05,29,07,04,3.70
2008,05,29,07,05,5.80
2008,05,29,07,06,5.50
2008,05,29,07,07,3.60
2008,05,29,07,08,10.00
2008,05,29,07,09,10.80
2008,05,29,07,10,3.40
2008,05,29,07,11,5.20
2008,05,29,07,12,3.10
2008,05,29,07,13,8.10
2008,05,29,07,14,4.30
2008,05,29,07,15,3.50
2008,05,29,07,16,4.60
2008,05,29,07,17,8.00
2008,05,29,07,18,5.70
2008,05,29,07,19,8.80
2008,05,29,07,20,5.90
2008,05,29,07,21,5.60
2008,05,29,07,22,5.00
2008,05,29,07,23,3.80
2008,05,29,07,24,3.50
2008,05,29,07,25,4.50
2008,05,29,07,26,7.50
2008,05,29,07,27,5.80
2008,05,29,07,28,6.90
2008,05,29,07,29,1.60
2008,05,29,07,30,8.50
2008,05,29,07,31,3.10
2008,05,29,07,32,11.40
2008,05,29,07,33,12.60
2008,05,29,07,34,3.30
2008,05,29,07,35,1.10
2008,05,29,07,36,5.00
2008,05,29,07,37,4.20
2008,05,29,07,38,4.20
2008,05,29,07,39,5.70
2008,05,29,07,40,4.70
2008,05,29,07,41,6.70
2008,05,29,07,42,1.90
2008,05,29,07,43,7.50
2008,05,29,07,44,7.40
2008,05,29,07,45,8.10
2008,05,29,07,46,6.60
2008,05,29,07,47,6.60
2008,05,29,07,48,6.30
2008,05,29,07,49,6.30
2008,05,29,07,50,7.50
2008,05,29,07,51,10.60
2008,05,29,07,52,3.00
2008,05,29,07,53,4.20
2008,05,29,07,54,1.50
2008,05,29,07,55,2.60
2008,05,29,07,56,8.00
2008,05,29,07,57,6.70
2008,05,29,07,58,3.60
2008,05,29,07,59,4.40
2008,05,29,08,00,5.30
2008,05,29,08,01,6.60
2008,05,29,08,02,4.20
2008,05,29,08,03,5.00
2008,05,29,08,04,8.80
2008,05,29,08,05,8.50
2008,05,29,08,06,5.90
2008,05,29,08,07,1.90
2008,05,29,08,08,4.80
2008,05,29,08,09,5.50
2008,05,29,08,10,7.00
2008,05,29,08,11,8.50
2008,05,29,08,12,1.80
2008,05,29,08,13,2.60
2008,05,29,08,14,5.10
2008,05,29,08,15,1.80
2008,05,29,08,16,5.80
2008,05,29,08,17,2.60
2008,05,29,08,18,3.60
2008,05,29,08,19,4.70
2008,05,29,08,20,9.40
2008,05,29,08,21,10.20
2008,05,29,08,22,9.80
2008,05,29,08,23,7.30
2008,05,29,08,24,6.20
2008,05,29,08,25,10.70
2008,05,29,08,26,7.60
2008,05,29,08,27,3.50
2008,05,29,08,28,7.70
2008,05,29,08,29,13.90
2008,05,29,08,30,5.70
2008,05,29,08,31,10.30
2008,05,29,08,32,5.50
2008,05,29,08,33,1.60
2008,05,29,08,34,0.90
2008,05,29,08,35,6.20
2008,05,29,08,36,2.50
2008,05,29,08,37,3.30
2008,05,29,08,38,10.10
2008,05,29,08,39,6.20
2008,05,29,08,40,4.50
2008,05,29,08,41,12.30
2008,05,29,08,42,4.90
2008,05,29,08,43,1.60
2008,05,29,08,44,5.20
2008,05,29,08,45,6.70
2008,05,29,08,46,7.70
2008,05,29,08,47,14.10
2008,05,29,08,48,2.60
2008,05,29,08,49,2.60
2008,05,29,08,50,1.80
2008,05,29,08,51,3.50
2008,05,29,08,52,4.60
2008,05,29,08,53,5.60
2008,05,29,08,54,8.60
2008,05,29,08,55,5.50
2008,05,29,08,56,6.40
2008,05,29,08,57,6.00
2008,05,29,08,58,3.90
2008,05,29,08,59,4.40
2008,05,29,09,00,8.00
2008,05,29,09,01,9.20
2008,05,29,09,02,9.40
2008,05,29,09,03,8.10
2008,05,29,09,04,6.00
2008,05,29,09,05,6.80
2008,05,29,09,06,10.60
2008,05,29,09,07,5.40
2008,05,29,09,08,3.30
2008,05,29,09,09,6.70
2008,05,29,09,10,10.30
2008,05,29,09,11,5.20
2008,05,29,09,12,5.60
2008,05,29,09,13,11.90
2008,05,29,09,14,8.70
2008,05,29,09,15,6.20
2008,05,29,09,16,4.30
2008,05,29,09,17,8.90
2008,05,29,09,18,8.30
2008,05,29,09,19,5.00
2008,05,29,09,20,6.60
2008,05,29,09,21,7.60
2008,05,29,09,22,4.90
2008,05,29,09,23,5.40
2008,05,29,09,24,6.70
2008,05,29,09,25,10.70
2008,05,29,09,26,7.60
2008,05,29,09,27,7.30
2008,05,29,09,28,7.20
2008,05,29,09,29,8.30
2008,05,29,09,30,8.80
2008,05,29,09,31,6.60
2008,05,29,09,32,8.70
2008,05,29,09,33,12.30
2008,05,29,09,34,3.90
2008,05,29,09,35,3.60
2008,05,29,09,36,9.10
2008,05,29,09,37,2.50
2008,05,29,09,38,9.70
2008,05,29,09,39,11.90
2008,05,29,09,40,5.60
2008,05,29,09,41,1.90
2008,05,29,09,42,3.10
2008,05,29,09,43,4.20
2008,05,29,09,44,6.40
2008,05,29,09,45,9.40
2008,05,29,09,46,5.70
2008,05,29,09,47,4.60
2008,05,29,09,48,3.90
2008,05,29,09,49,8.90
2008,05,29,09,50,3.80
2008,05,29,09,51,7.20
2008,05,29,09,52,7.30
2008,05,29,09,53,1.70
2008,05,29,09,54,5.20
2008,05,29,09,55,8.10
2008,05,29,09,56,5.80
2008,05,29,09,57,3.20
2008,05,29,09,58,4.80
2008,05,29,09,59,12.60
2008,05,29,10,00,10.40
2008,05,29,10,01,12.80
2008,05,29,10,02,9.60
2008,05,29,10,03,8.20
2008,05,29,10,04,9.80
2008,05,29,10,05,4.50
2008,05,29,10,06,9.10
2008,05,29,10,07,5.70
2008,05,29,10,08,3.90
2008,05,29,10,09,12.40
2008,05,29,10,10,6.40
2008,05,29,10,11,5.30
2008,05,29,10,12,5.30
2008,05,29,10,13,5.40
2008,05,29,10,14,7.00
2008,05,29,10,15,11.10
2008,05,29,10,16,6.10
2008,05,29,10,17,6.10
2008,05,29,10,18,4.20
2008,05,29,10,19,13.00
2008,05,29,10,20,10.90
2008,05,29,10,21,10.00
2008,05,29,10,22,13.30
2008,05,29,10,23,7.80
2008,05,29,10,24,5.90
2008,05,29,10,25,6.10
2008,05,29,10,26,1.80
2008,05,29,10,27,1.60
2008,05,29,10,28,4.40
2008,05,29,10,29,7.90
2008,05,29,10,30,10.90
2008,05,29,10,31,10.00
2008,05,29,10,32,6.20
2008,05,29,10,33,8.80
2008,05,29,10,34,3.90
2008,05,29,10,35,3.90
2008,05,29,10,36,4.30
2008,05,29,10,37,5.50
2008,05,29,10,38,3.60
2008,05,29,10,39,4.90
2008,05,29,10,40,6.40
2008,05,29,10,41,12.00
2008,05,29,10,42,3.60
2008,05,29,10,43,9.30
2008,05,29,10,44,12.20
2008,05,29,10,45,7.80
2008,05,29,10,46,7.60
2008,05,29,10,47,2.70
2008,05,29,10,48,4.30
2008,05,29,10,49,13.50
2008,05,29,10,50,5.60
2008,05,29,10,51,5.70
2008,05,29,10,52,5.40
2008,05,29,10,53,13.00
2008,05,29,10,54,9.80
2008,05,29,10,55,8.70
2008,05,29,10,56,10.60
2008,05,29,10,57,5.90
2008,05,29,10,58,10.60
2008,05,29,10,59,9.70
2008,05,29,11,00,8.10
2008,05,29,11,01,8.70
2008,05,29,11,02,13.00
2008,05,29,11,03,13.70
2008,05,29,11,04,11.00
2008,05,29,11,05,8.90
2008,05,29,11,06,12.60
2008,05,29,11,07,4.40
2008,05,29,11,08,16.20
2008,05,29,11,09,7.20
2008,05,29,11,10,9.00
2008,05,29,11,11,10.90
2008,05,29,11,12,4.20
2008,05,29,11,13,6.30
2008,05,29,11,14,11.70
2008,05,29,11,15,10.90
2008,05,29,11,16,7.30
2008,05,29,11,17,10.20
2008,05,29,11,18,6.10
2008,05,29,11,19,4.10
2008,05,29,11,20,6.30
2008,05,29,11,21,16.10
2008,05,29,11,22,10.20
2008,05,29,11,23,6.20
2008,05,29,11,24,5.20
2008,05,29,11,25,3.70
2008,05,29,11,26,3.60
2008,05,29,11,27,2.80
2008,05,29,11,28,12.40
2008,05,29,11,29,6.30
2008,05,29,11,30,11.00
2008,05,29,11,31,10.80
2008,05,29,11,32,11.20
2008,05,29,11,33,8.00
2008,05,29,11,34,7.80
2008,05,29,11,35,6.70
2008,05,29,11,36,7.60
2008,05,29,11,37,8.20
2008,05,29,11,38,5.40
2008,05,29,11,39,5.20
2008,05,29,11,40,2.30
2008,05,29,11,41,3.20
2008,05,29,11,42,9.80
2008,05,29,11,43,10.00
2008,05,29,11,44,7.50
2008,05,29,11,45,10.80
2008,05,29,11,46,14.40
2008,05,29,11,47,11.80
2008,05,29,11,48,9.20
2008,05,29,11,49,14.10
2008,05,29,11,50,9.60
2008,05,29,11,51,12.10
2008,05,29,11,52,8.40
2008,05,29,11,53,9.70
2008,05,29,11,54,9.70
2008,05,29,11,55,13.10
2008,05,29,11,56,8.60
2008,05,29,11,57,10.30
2008,05,29,11,58,10.80
2008,05,29,11,59,8.70
2008,05,29,12,00,11.80
2008,05,29,12,01,14.70
2008,05,29,12,02,10.90
2008,05,29,12,03,5.90
2008,05,29,12,04,4.30
2008,05,29,12,05,4.10
2008,05,29,12,06,4.70
2008,05,29,12,07,9.80
2008,05,29,12,08,10.90
2008,05,29,12,09,9.40
2008,05,29,12,10,8.90
2008,05,29,12,11,8.00
2008,05,29,12,12,13.60
2008,05,29,12,13,4.50
2008,05,29,12,14,12.70
2008,05,29,12,15,14.30
2008,05,29,12,16,10.80
2008,05,29,12,17,11.20
2008,05,29,12,18,13.00
2008,05,29,12,19,14.10
2008,05,29,12,20,9.00
2008,05,29,12,21,12.20
2008,05,29,12,22,6.30
2008,05,29,12,23,9.70
2008,05,29,12,24,10.30
2008,05,29,12,25,8.80
2008,05,29,12,26,13.50
2008,05,29,12,27,12.50
2008,05,29,12,28,10.90
2008,05,29,12,29,9.10
2008,05,29,12,30,3.50
2008,05,29,12,31,10.80
2008,05,29,12,32,13.50
2008,05,29,12,33,12.30
2008,05,29,12,34,8.00
2008,05,29,12,35,9.70
2008,05,29,12,36,4.80
2008,05,29,12,37,4.30
2008,05,29,12,38,6.20
2008,05,29,12,39,7.80
2008,05,29,12,40,6.90
2008,05,29,12,41,11.50
2008,05,29,12,42,11.90
2008,05,29,12,43,9.80
2008,05,29,12,44,14.30
2008,05,29,12,45,9.70
2008,05,29,12,46,14.80
2008,05,29,12,47,7.80
2008,05,29,12,48,5.30
2008,05,29,12,49,5.60
2008,05,29,12,50,10.90
2008,05,29,12,51,4.30
2008,05,29,12,52,11.70
2008,05,29,12,53,7.20
2008,05,29,12,54,3.40
2008,05,29,12,55,2.90
2008,05,29,12,56,14.80
2008,05,29,12,57,9.10
2008,05,29,12,58,13.80
2008,05,29,12,59,9.10
2008,05,29,13,00,8.80
2008,05,29,13,01,8.10
2008,05,29,13,02,9.70
2008,05,29,13,03,9.80
2008,05,29,13,04,9.30
2008,05,29,13,05,11.90
2008,05,29,13,06,13.00
2008,05,29,13,07,11.00
2008,05,29,13,08,11.40
2008,05,29,13,09,10.20
2008,05,29,13,10,11.50
2008,05,29,13,11,9.60
2008,05,29,13,12,7.30
2008,05,29,13,13,9.10
2008,05,29,13,14,8.00
2008,05,29,13,15,8.80
2008,05,29,13,16,12.00
2008,05,29,13,17,14.40
2008,05,29,13,18,12.90
2008,05,29,13,19,11.60
2008,05,29,13,20,3.20
2008,05,29,13,21,7.30
2008,05,29,13,22,3.80
2008,05,29,13,23,6.40
2008,05,29,13,24,6.40
2008,05,29,13,25,11.70
2008,05,29,13,26,10.30
2008,05,29,13,27,10.70
2008,05,29,13,28,5.00
2008,05,29,13,29,12.60
2008,05,29,13,30,13.50
2008,05,29,13,31,14.40
2008,05,29,13,32,12.40
2008,05,29,13,33,13.70
2008,05,29,13,34,17.50
2008,05,29,13,35,19.30
2008,05,29,13,36,19.30
2008,05,29,13,37,10.40
2008,05,29,13,38,6.00
2008,05,29,13,39,18.50
2008,05,29,13,40,14.80
2008,05,29,13,41,10.80
2008,05,29,13,42,13.00
2008,05,29,13,43,16.10
2008,05,29,13,44,10.00
2008,05,29,13,45,4.80
2008,05,29,13,46,7.20
2008,05,29,13,47,12.50
2008,05,29,13,48,9.80
2008,05,29,13,49,12.80
2008,05,29,13,50,13.60
2008,05,29,13,51,9.20
2008,05,29,13,52,7.50
2008,05,29,13,53,5.00
2008,05,29,13,54,8.90
2008,05,29,13,55,7.50
2008,05,29,13,56,6.40
2008,05,29,13,57,8.80
2008,05,29,13,58,7.50
2008,05,29,13,59,7.90
2008,05,29,14,00,9.00
2008,05,29,14,01,7.30
2008,05,29,14,02,6.40
2008,05,29,14,03,5.60
2008,05,29,14,04,6.70
2008,05,29,14,05,8.80
2008,05,29,14,06,8.70
2008,05,29,14,07,5.30
2008,05,29,14,08,5.20
2008,05,29,14,09,11.90
2008,05,29,14,10,3.70
2008,05,29,14,11,5.80
2008,05,29,14,12,8.30
2008,05,29,14,13,12.90
2008,05,29,14,14,7.40
2008,05,29,14,15,4.40
2008,05,29,14,16,16.30
2008,05,29,14,17,13.40
2008,05,29,14,18,13.80
2008,05,29,14,19,9.00
2008,05,29,14,20,12.50
2008,05,29,14,21,10.60
2008,05,29,14,22,8.90
2008,05,29,14,23,14.90
2008,05,29,14,24,12.20
2008,05,29,14,25,18.20
2008,05,29,14,26,14.90
2008,05,29,14,27,13.10
2008,05,29,14,28,4.10
2008,05,29,14,29,7.70
2008,05,29,14,30,8.30
2008,05,29,14,31,6.70
2008,05,29,14,32,10.10
2008,05,29,14,33,11.00
2008,05,29,14,34,13.40
2008,05,29,14,35,3.10
2008,05,29,14,36,13.80
2008,05,29,14,37,11.30
2008,05,29,14,38,13.70
2008,05,29,14,39,14.00
2008,05,29,14,40,7.50
2008,05,29,14,41,4.30
2008,05,29,14,42,13.30
2008,05,29,14,43,6.80
2008,05,29,14,44,11.90
2008,05,29,14,45,10.30
2008,05,29,14,46,7.30
2008,05,29,14,47,9.50
2008,05,29,14,48,7.10
2008,05,29,14,49,7.20
2008,05,29,14,50,6.00
2008,05,29,14,51,6.40
2008,05,29,14,52,7.90
2008,05,29,14,53,11.00
2008,05,29,14,54,4.70
2008,05,29,14,55,5.90
2008,05,29,14,56,3.90
2008,05,29,14,57,7.80
2008,05,29,14,58,3.50
2008,05,29,14,59,7.00
2008,05,29,15,00,6.40
2008,05,29,15,01,5.00
2008,05,29,15,02,4.20
2008,05,29,15,03,17.90
2008,05,29,15,04,15.00
2008,05,29,15,05,9.10
2008,05,29,15,06,12.90
2008,05,29,15,07,14.30
2008,05,29,15,08,10.90
2008,05,29,15,09,13.40
2008,05,29,15,10,17.90
2008,05,29,15,11,9.00
2008,05,29,15,12,20.60
2008,05,29,15,13,9.70
2008,05,29,15,14,15.60
2008,05,29,15,15,5.10
2008,05,29,15,16,9.10
2008,05,29,15,17,8.20
2008,05,29,15,18,9.30
2008,05,29,15,19,6.00
2008,05,29,15,20,8.60
2008,05,29,15,21,10.30
2008,05,29,15,22,14.40
2008,05,29,15,23,9.20
2008,05,29,15,24,7.90
2008,05,29,15,25,8.90
2008,05,29,15,26,9.50
2008,05,29,15,27,16.40
2008,05,29,15,28,15.20
2008,05,29,15,29,11.90
2008,05,29,15,30,12.60
2008,05,29,15,31,15.20
2008,05,29,15,32,5.00
2008,05,29,15,33,3.70
2008,05,29,15,34,5.50
2008,05,29,15,35,9.70
2008,05,29,15,36,10.40
2008,05,29,15,37,15.10
2008,05,29,15,38,14.70
2008,05,29,15,39,11.60
2008,05,29,15,40,7.40
2008,05,29,15,41,13.40
2008,05,29,15,42,8.80
2008,05,29,15,43,13.10
2008,05,29,15,44,9.00
2008,05,29,15,45,12.50
2008,05,29,15,46,5.20
2008,05,29,15,47,9.40
2008,05,29,15,48,16.40
2008,05,29,15,49,10.90
2008,05,29,15,50,16.00
2008,05,29,15,51,7.20
2008,05,29,15,52,6.80
2008,05,29,15,53,6.30
2008,05,29,15,54,9.40
2008,05,29,15,55,8.10
2008,05,29,15,56,6.90
2008,05,29,15,57,9.50
2008,05,29,15,58,9.00
2008,05,29,15,59,5.30
2008,05,29,16,00,10.50
2008,05,29,16,01,11.10
2008,05,29,16,02,9.10
2008,05,29,16,03,7.00
2008,05,29,16,04,9.70
2008,05,29,16,05,12.40
2008,05,29,16,06,14.70
2008,05,29,16,07,7.70
2008,05,29,16,08,18.80
2008,05,29,16,09,11.90
2008,05,29,16,10,7.20
2008,05,29,16,11,8.20
2008,05,29,16,12,18.60
2008,05,29,16,13,15.60
2008,05,29,16,14,12.10
2008,05,29,16,15,9.60
2008,05,29,16,16,18.80
2008,05,29,16,17,8.50
2008,05,29,16,18,7.20
2008,05,29,16,19,14.00
2008,05,29,16,20,13.40
2008,05,29,16,21,13.00
2008,05,29,16,22,6.20
2008,05,29,16,23,8.30
2008,05,29,16,24,9.40
2008,05,29,16,25,17.20
2008,05,29,16,26,13.20
2008,05,29,16,27,7.30
2008,05,29,16,28,7.70
2008,05,29,16,29,8.20
2008,05,29,16,30,6.50
2008,05,29,16,31,14.80
2008,05,29,16,32,16.70
2008,05,29,16,33,11.90
2008,05,29,16,34,6.40
2008,05,29,16,35,15.90
2008,05,29,16,36,17.80
2008,05,29,16,37,15.80
2008,05,29,16,38,14.50
2008,05,29,16,39,6.30
2008,05,29,16,40,11.10
2008,05,29,16,41,5.60
2008,05,29,16,42,9.10
2008,05,29,16,43,12.20
2008,05,29,16,44,13.70
2008,05,29,16,45,18.00
2008,05,29,16,46,10.90
2008,05,29,16,47,9.60
2008,05,29,16,48,10.70
2008,05,29,16,49,5.40
2008,05,29,16,50,4.00
2008,05,29,16,51,8.00
2008,05,29,16,52,5.60
2008,05,29,16,53,9.80
2008,05,29,16,54,11.90
2008,05,29,16,55,11.30
2008,05,29,16,56,7.40
2008,05,29,16,57,9.70
2008,05,29,16,58,6.30
2008,05,29,16,59,7.30
2008,05,29,17,00,6.20
2008,05,29,17,01,2.10
2008,05,29,17,02,2.60
2008,05,29,17,03,9.20
2008,05,29,17,04,9.70
2008,05,29,17,05,7.90
2008,05,29,17,06,5.80
2008,05,29,17,07,15.10
2008,05,29,17,08,7.90
2008,05,29,17,09,15.30
2008,05,29,17,10,17.00
2008,05,29,17,11,13.60
2008,05,29,17,12,9.70
2008,05,29,17,13,7.20
2008,05,29,17,14,6.40
2008,05,29,17,15,18.30
2008,05,29,17,16,17.30
2008,05,29,17,17,12.20
2008,05,29,17,18,16.50
2008,05,29,17,19,11.50
2008,05,29,17,20,6.20
2008,05,29,17,21,10.90
2008,05,29,17,22,15.50
2008,05,29,17,23,12.30
2008,05,29,17,24,11.90
2008,05,29,17,25,14.90
2008,05,29,17,26,9.70
2008,05,29,17,27,12.20
2008,05,29,17,28,9.60
2008,05,29,17,29,12.80
2008,05,29,17,30,8.00
2008,05,29,17,31,14.10
2008,05,29,17,32,9.50
2008,05,29,17,33,14.60
2008,05,29,17,34,17.10
2008,05,29,17,35,10.10
2008,05,29,17,36,8.10
2008,05,29,17,37,8.10
2008,05,29,17,38,13.70
2008,05,29,17,39,10.70
2008,05,29,17,40,8.10
2008,05,29,17,41,8.00
2008,05,29,17,42,19.90
2008,05,29,17,43,7.90
2008,05,29,17,44,11.70
2008,05,29,17,45,6.30
2008,05,29,17,46,8.80
2008,05,29,17,47,15.90